This demonstration page uses our WeatherBlox Daily Observations layout. Learn more.

Left ArrowRight Arrow

39.08367, -84.50855

Hourly Observations for July 3, 2022

Temp ( °F °C ) Dew Point ( °F °C ) Humidity (%) Winds ( mph kmh ) Pressure ( in mb ) Visibility ( mi km ) Precip ( " mm )
12:53 am 00:53 Cloudy 73 22.8 65 18.3 76 76 Calm 30.04 1017 10 16 0.00 0.00
1:53 am 01:53 Cloudy 71 21.7 65 18.3 81 81 Calm 30.04 1017 10 16 0.00 0.00
2:53 am 02:53 Cloudy 69 20.6 66 18.9 90 90 Calm 30.03 1017 10 16 0.00 0.00
3:53 am 03:53 Cloudy 69 20.6 66 18.9 90 90 Calm 30.03 1017 10 16 0.00 0.00
4:53 am 04:53 Cloudy with Light Rain 70 21.1 66 18.9 87 87 Calm 30.04 1017 10 16 0.00 0.00
5:53 am 05:53 Cloudy 69 20.6 67 19.4 93 93 E 3 6 30.06 1018 9 14 0.00 0.00
6:53 am 06:53 Cloudy 69 20.6 66 18.9 90 90 Calm 30.08 1019 9 14 0.00 0.00
7:53 am 07:53 Mostly Cloudy 72 22.2 67 19.4 84 84 Calm 30.10 1019 10 16 0.00 0.00
8:53 am 08:53 Partly Cloudy 77 25 65 18.3 66 66 Calm 30.10 1019 10 16 0.00 0.00
9:53 am 09:53 Mostly Sunny 79 26.1 62 16.7 56 56 VRB 3 6 30.12 1020 10 16 0.00 0.00
10:53 am 10:53 Mostly Sunny 80 26.7 62 16.7 54 54 Calm 30.13 1020 10 16 0.00 0.00
11:53 am 11:53 Partly Cloudy 82 27.8 61 16.1 49 49 SE 3 6 30.13 1020 10 16 0.00 0.00
12:53 pm 12:53 Mostly Sunny 85 29.4 60 15.6 43 43 ENE 8 13 30.12 1020 10 16 0.00 0.00
1:53 pm 13:53 Mostly Sunny 86 30 61 16.1 43 43 ESE 8 13 30.10 1019 10 16 0.00 0.00
2:53 pm 14:53 Mostly Sunny 87 30.6 59 15 39 39 ENE 8 13 30.09 1019 10 16 0.00 0.00
3:53 pm 15:53 Sunny 88 31.1 60 15.6 39 39 NE 7 11 30.08 1019 10 16 0.00 0.00
4:53 pm 16:53 Sunny 88 31.1 60 15.6 39 39 E 5 7 30.07 1018 10 16 0.00 0.00
5:53 pm 17:53 Sunny 88 31.1 61 16.1 40 40 SE 6 9 30.07 1018 10 16 0.00 0.00
6:53 pm 18:53 Sunny 86 30 63 17.2 46 46 SSW 7 11 30.07 1018 10 16 0.00 0.00
7:53 pm 19:53 Sunny 83 28.3 64 17.8 53 53 S 6 9 30.09 1019 10 16 0.00 0.00
8:53 pm 20:53 Sunny 78 25.6 67 19.4 69 69 SE 3 6 30.09 1019 10 16 0.00 0.00
9:53 pm 21:53 Clear 73 22.8 66 18.9 79 79 Calm 30.09 1019 10 16 0.00 0.00
10:53 pm 22:53 Clear 70 21.1 65 18.3 84 84 Calm 30.11 1020 10 16 0.00 0.00
11:53 pm 23:53 Clear with Mist and Fog 68 20 65 18.3 90 90 Calm 30.12 1020 6 10 0.00 0.00

Powered by AerisWeather